[[{"header":{"parameterUnit":"m.s-1","parameterCategory":2,"la1":30.2992,"la2":30.254,"lo1":-89.0895,"lo2":-89.0443,"dy":0.0025,"dx":0.0025,"nx":19,"ny":19,"refTime":"2026-05-10T09:00:00:Z","depth":"0","parameterNumber":2,"parameterNumberName":"U-component_of_CURRENTS"},"data":[0,0,0,0.1348,0.1348,0.1388,0.1388,0.1417,0.1417,0,0,0,0,0,0,0,0,0,0,0,0.1326,0.1326,0.1347,0.1348,0.1388,0.1388,0.1417,0.1417,0,0,0,0,0,0,0,0,0,0,0,0.1326,0.1326,0.1326,0.1348,0.1388,0.1388,0.1417,0.1393,0,0,0,0,0,0,0,0,0,0,0.1358,0.1332,0.1326,0.1326,0.1349,0.1388,0.1388,0.1393,0.1395,0.1392,0,0.139,0,0.1405,0.1418,0.1418,0,0,0,0.1352,0.133,0.1349,0.1326,0.1349,0.1388,0.1371,0.1394,0.1397,0.1395,0.139,0.1392,0.1406,0.1418,0.1418,0.1425,0.1425,0,0,0.135,0.1327,0.1347,0.135,0.1348,0.137,0.1372,0.1396,0.1388,0.1391,0.1393,0.1406,0.1418,0.1419,0.1426,0.1425,0,0,0,0.1341,0.1325,0.1344,0.1349,0.1358,0.1371,0.1374,0.1387,0.1395,0.1393,0.1407,0.1419,0.1419,0.1426,0.1426,0.1399,0,0,0,0.134,0.1321,0.1343,0.1329,0.1358,0.1374,0.1364,0.1394,0.1397,0.1406,0.1419,0.1419,0.1426,0.1426,0.14,0.1386,0,0,0,0.1326,0.1319,0.1322,0.1328,0.1346,0.1375,0.1384,0.1395,0.1405,0.1418,0.1419,0.1426,0.1426,0.14,0.1388,0.1399,0,0,0,0.1304,0.1283,0.1321,0.1306,0.1345,0.1357,0.1385,0.1391,0.1399,0.1419,0.1426,0.1426,0.1401,0.1389,0.14,0.1433,0.1433,0,0,0.1264,0.1277,0.1271,0.1307,0.1306,0.1353,0.1354,0.1376,0.1398,0.1417,0.1418,0.1399,0.1388,0.14,0.1426,0.1427,0,0,0,0.1251,0.1245,0.125,0.1264,0.129,0.132,0.135,0.1368,0.1392,0.1403,0.1405,0.1399,0.1407,0.1428,0.1428,0.1527,0.1425,0.1425,0.1425,0.1156,0.1194,0.1187,0.1233,0.1247,0.1295,0.1316,0.135,0.1369,0.1379,0.1381,0.1376,0.1397,0.1398,0.15,0.1387,0.1387,0.1386,0.1386,0.1103,0.11,0.1156,0.1165,0.1213,0.1228,0.129,0.1315,0.1351,0.1365,0.1375,0.1403,0.1397,0.1505,0.1385,0.1385,0.1385,0.1385,0.1386,0.1037,0.1042,0.1071,0.1104,0.1136,0.1193,0.1226,0.1273,0.1325,0.1333,0.138,0.1382,0.1475,0.1346,0.1346,0.1346,0.1346,0.1346,0.1346,0.0953,0.0988,0.0989,0.1038,0.1059,0.1103,0.119,0.1234,0.1314,0.1357,0.1357,0.149,0.1364,0.1364,0.1346,0.1346,0.1346,0.1346,0.1346,0.0868,0.0888,0.0891,0.0909,0.0974,0.1017,0.1115,0.1244,0.1301,0.1349,0.1517,0.138,0.1396,0.1397,0.1398,0.139,0.139,0.139,0.139,0.0797,0.0811,0.0807,0.0828,0.0873,0.0971,0.1068,0.1223,0.1444,0.1565,0.1591,0.1618,0.1612,0.1643,0.1638,0.1645,0.1699,0.17,0.17,0.0744,0.0755,0.0727,0.0765,0.0826,0.0929,0.103,0.1205,0.1562,0.1723,0.1723,0.171,0.1759,0.1741,0.1795,0.178,0.1793,0,0]},{"header":{"parameterUnit":"m.s-1","parameterCategory":2,"la1":30.2992,"la2":30.254,"lo1":-89.0895,"lo2":-89.0443,"dy":0.0025,"dx":0.0025,"nx":19,"ny":19,"refTime":"2026-05-10T09:00:00:Z","depth":"0","parameterNumber":3,"parameterNumberName":"V-component_of_CURRENTS"},"data":[0,0,0,-0.1248,-0.1251,-0.1412,-0.1413,-0.1561,-0.1562,0,0,0,0,0,0,0,0,0,0,0,-0.1185,-0.1185,-0.1248,-0.1251,-0.1412,-0.1413,-0.1561,-0.1562,0,0,0,0,0,0,0,0,0,0,0,-0.1184,-0.1185,-0.1186,-0.1252,-0.1412,-0.1413,-0.1561,-0.1458,0,0,0,0,0,0,0,0,0,0,-0.131,-0.1237,-0.1185,-0.1186,-0.1253,-0.1412,-0.1413,-0.1454,-0.1464,-0.1467,0,-0.1478,0,-0.1519,-0.1569,-0.157,0,0,0,-0.1269,-0.1228,-0.1286,-0.1186,-0.1254,-0.1412,-0.1345,-0.146,-0.1472,-0.148,-0.1481,-0.1487,-0.1521,-0.157,-0.1571,-0.1613,-0.1613,0,0,-0.126,-0.1205,-0.1278,-0.1293,-0.1277,-0.1339,-0.1349,-0.1468,-0.1462,-0.1481,-0.1491,-0.1523,-0.1571,-0.1572,-0.1614,-0.1613,0,0,0,-0.1223,-0.1198,-0.1255,-0.1286,-0.1317,-0.1343,-0.1355,-0.1457,-0.148,-0.1493,-0.1525,-0.1571,-0.1573,-0.1614,-0.1613,-0.1527,0,0,0,-0.1218,-0.1176,-0.125,-0.1218,-0.1315,-0.1393,-0.134,-0.1472,-0.1487,-0.1524,-0.1571,-0.1574,-0.1614,-0.1614,-0.153,-0.1487,0,0,0,-0.1181,-0.1172,-0.1188,-0.1215,-0.128,-0.1392,-0.1423,-0.1476,-0.1505,-0.157,-0.1574,-0.1615,-0.1614,-0.1532,-0.1492,-0.1474,0,0,0,-0.1124,-0.1124,-0.1186,-0.1197,-0.1278,-0.1352,-0.1423,-0.1474,-0.152,-0.1572,-0.1614,-0.1613,-0.1533,-0.1495,-0.1477,-0.144,-0.1424,0,0,-0.1094,-0.1118,-0.1129,-0.1189,-0.1233,-0.1332,-0.1365,-0.1451,-0.1511,-0.1575,-0.1577,-0.1529,-0.1492,-0.1475,-0.1396,-0.1381,0,0,0,-0.1101,-0.1103,-0.1127,-0.117,-0.1245,-0.1297,-0.1392,-0.1426,-0.1486,-0.1535,-0.1538,-0.1518,-0.1509,-0.1493,-0.1481,-0.1449,-0.161,-0.161,-0.161,-0.0971,-0.1041,-0.1053,-0.1136,-0.1177,-0.1273,-0.131,-0.1376,-0.1439,-0.144,-0.1453,-0.1389,-0.137,-0.1361,-0.1327,-0.1464,-0.1464,-0.1464,-0.1464,-0.0921,-0.0935,-0.1002,-0.1041,-0.1107,-0.1142,-0.1233,-0.1276,-0.1325,-0.1379,-0.1376,-0.141,-0.1342,-0.1311,-0.1458,-0.1459,-0.146,-0.146,-0.1461,-0.0839,-0.0858,-0.0895,-0.095,-0.0978,-0.106,-0.1075,-0.1155,-0.1236,-0.1239,-0.1262,-0.1263,-0.1232,-0.1249,-0.1248,-0.1248,-0.1248,-0.1248,-0.1247,-0.0748,-0.0791,-0.0799,-0.0856,-0.0874,-0.0903,-0.0987,-0.1025,-0.1102,-0.1163,-0.1164,-0.1198,-0.1324,-0.1328,-0.1243,-0.1244,-0.1244,-0.1245,-0.1245,-0.0685,-0.0696,-0.0711,-0.0725,-0.0768,-0.0755,-0.0831,-0.0897,-0.0965,-0.0995,-0.1044,-0.1137,-0.1168,-0.1178,-0.118,-0.1062,-0.1062,-0.1062,-0.1062,-0.0622,-0.0634,-0.0644,-0.0653,-0.0663,-0.069,-0.0637,-0.0689,-0.0838,-0.0891,-0.0949,-0.0975,-0.0984,-0.1006,-0.1021,-0.1022,-0.0865,-0.0865,-0.0865,-0.0588,-0.0599,-0.0585,-0.0605,-0.062,-0.0608,-0.0497,-0.0394,-0.0654,-0.0855,-0.0905,-0.0913,-0.0954,-0.0971,-0.1015,-0.1037,-0.1043,0,0]}],[{"header":{"parameterUnit":"m.s-1","parameterCategory":2,"la1":30.2992,"la2":30.254,"lo1":-89.0895,"lo2":-89.0443,"dy":0.0025,"dx":0.0025,"nx":19,"ny":19,"refTime":"2026-05-10T09:00:00:Z","depth":"2","parameterNumber":2,"parameterNumberName":"U-component_of_CURRENTS"},"data":[0,0,0,0.0786,0.0787,0.0831,0.0832,0.0871,0.0871,0,0,0,0,0,0,0,0,0,0,0,0.0775,0.0775,0.0786,0.0787,0.0831,0.0832,0.0871,0.0871,0,0,0,0,0,0,0,0,0,0,0,0.0774,0.0775,0.0775,0.0787,0.0831,0.0832,0.0871,0.0843,0,0,0,0,0,0,0,0,0,0,0.0802,0.08,0.0775,0.0775,0.0787,0.0831,0.0832,0.0841,0.0844,0.0845,0,0.0854,0,0.086,0.0873,0.0873,0,0,0,0.079,0.0798,0.0801,0.0775,0.0787,0.0831,0.0812,0.0843,0.0846,0.0848,0.0855,0.0856,0.0861,0.0873,0.0874,0.0929,0.0929,0,0,0.0788,0.0791,0.0799,0.0803,0.0802,0.0811,0.0814,0.0845,0.0855,0.0855,0.0857,0.0861,0.0874,0.0874,0.0928,0.0929,0,0,0,0.0778,0.0789,0.0792,0.0801,0.0809,0.0812,0.0815,0.0854,0.0853,0.0858,0.0862,0.0874,0.0874,0.0928,0.0929,0.0971,0,0,0,0.0777,0.0783,0.0791,0.0794,0.0809,0.0836,0.0823,0.0851,0.0854,0.0862,0.0874,0.0874,0.0927,0.0928,0.0969,0.0976,0,0,0,0.0772,0.0783,0.0787,0.0794,0.081,0.0836,0.0837,0.0852,0.0856,0.0873,0.0875,0.0927,0.0928,0.0967,0.0973,0.1026,0,0,0,0.0774,0.0778,0.0787,0.0795,0.081,0.0829,0.0837,0.0865,0.0882,0.0874,0.0928,0.0928,0.0967,0.0971,0.1023,0.1111,0.1128,0,0,0.0774,0.0779,0.078,0.0789,0.0803,0.0823,0.0857,0.0888,0.0896,0.0915,0.0917,0.097,0.0973,0.1025,0.1165,0.1181,0,0,0,0.0777,0.0781,0.0786,0.08,0.0815,0.0855,0.0881,0.0905,0.0953,0.091,0.0977,0.0977,0.1009,0.1057,0.107,0.0933,0.0933,0.0933,0.0933,0.0781,0.0785,0.0794,0.0808,0.0832,0.0884,0.0924,0.0964,0.0966,0.1005,0.1018,0.1092,0.1144,0.1155,0.1031,0.1031,0.1031,0.1031,0.1031,0.0775,0.0773,0.0802,0.0815,0.0861,0.0902,0.0974,0.1006,0.108,0.1061,0.1092,0.1107,0.1172,0.1035,0.1034,0.1034,0.1033,0.1033,0.1033,0.0764,0.0763,0.0784,0.0813,0.0868,0.0927,0.1002,0.106,0.1116,0.1154,0.1228,0.1228,0.1119,0.1186,0.1187,0.1187,0.1187,0.1187,0.1188,0.0739,0.0755,0.0769,0.081,0.0841,0.0911,0.1026,0.1098,0.1229,0.1278,0.1279,0.1144,0.1139,0.1128,0.1192,0.1191,0.1191,0.119,0.119,0.0702,0.0722,0.0732,0.0759,0.0827,0.0894,0.1013,0.1224,0.1313,0.1401,0.1358,0.1353,0.1349,0.134,0.1334,0.1447,0.1447,0.1447,0.1447,0.0676,0.0685,0.0699,0.0726,0.0783,0.0881,0.1045,0.1184,0.1338,0.1347,0.1349,0.1314,0.1309,0.1298,0.1289,0.1279,0.1378,0.1377,0.1377,0.0647,0.0659,0.0658,0.0696,0.076,0.0876,0.1031,0.1049,0.1099,0.136,0.119,0.1471,0.1429,0.1416,0.1404,0.1388,0.1375,0,0]},{"header":{"parameterUnit":"m.s-1","parameterCategory":2,"la1":30.2992,"la2":30.254,"lo1":-89.0895,"lo2":-89.0443,"dy":0.0025,"dx":0.0025,"nx":19,"ny":19,"refTime":"2026-05-10T09:00:00:Z","depth":"2","parameterNumber":3,"parameterNumberName":"V-component_of_CURRENTS"},"data":[0,0,0,0.0079,0.0078,0.0035,0.0035,0.0039,0.0039,0,0,0,0,0,0,0,0,0,0,0,0.0089,0.0089,0.0079,0.0078,0.0035,0.0035,0.0039,0.0039,0,0,0,0,0,0,0,0,0,0,0,0.0089,0.0089,0.0088,0.0078,0.0035,0.0035,0.0039,0.0056,0,0,0,0,0,0,0,0,0,0,0.0091,0.0084,0.0089,0.0088,0.0078,0.0035,0.0035,0.0057,0.0055,0.0077,0,0.0064,0,0.0057,0.0041,0.0041,0,0,0,0.0076,0.0085,0.0083,0.0088,0.0078,0.0035,0.0054,0.0055,0.0054,0.0075,0.0064,0.0064,0.0057,0.0041,0.0041,0.0085,0.0085,0,0,0.0079,0.0075,0.0083,0.0081,0.006,0.0055,0.0053,0.0054,0.0046,0.0064,0.0064,0.0057,0.0042,0.0042,0.0085,0.0085,0,0,0,0.0087,0.0076,0.0072,0.0082,0.0071,0.0054,0.0051,0.0046,0.0047,0.0064,0.0057,0.0042,0.0042,0.0085,0.0085,0.0097,0,0,0,0.0088,0.0082,0.0073,0.007,0.0071,0.0048,0.0043,0.0046,0.0046,0.0057,0.0042,0.0042,0.0084,0.0085,0.0096,0.012,0,0,0,0.0092,0.0082,0.0077,0.007,0.0053,0.0048,0.0048,0.0045,0.0043,0.0041,0.0042,0.0084,0.0085,0.0096,0.0118,0.0146,0,0,0,0.009,0.0095,0.0076,0.0085,0.0054,0.0073,0.0047,0.0042,0.0041,0.0042,0.0084,0.0085,0.0095,0.0117,0.0144,0.0243,0.0258,0,0,0.0105,0.0097,0.0107,0.009,0.0115,0.0079,0.0106,0.0078,0.0061,0.0087,0.0087,0.0097,0.0118,0.0146,0.028,0.0294,0,0,0,0.0119,0.0123,0.0129,0.0132,0.0138,0.0142,0.0113,0.0106,0.0093,0.0063,0.0106,0.012,0.0137,0.0193,0.0204,0.0088,0.0088,0.0088,0.0088,0.0135,0.0146,0.0169,0.0181,0.0189,0.0182,0.0184,0.017,0.0136,0.0126,0.0136,0.0177,0.0238,0.0247,0.0134,0.0134,0.0134,0.0134,0.0134,0.0177,0.0204,0.0203,0.0225,0.0232,0.0242,0.0247,0.0215,0.0213,0.0172,0.0187,0.0212,0.026,0.0135,0.0135,0.0135,0.0135,0.0135,0.0135,0.0206,0.0225,0.0218,0.0248,0.0267,0.0268,0.0314,0.0281,0.0238,0.0243,0.0295,0.0296,0.0192,0.0232,0.0232,0.0232,0.0232,0.0232,0.0232,0.0246,0.0249,0.0264,0.028,0.0298,0.033,0.034,0.0357,0.0358,0.0338,0.0338,0.0211,0.0207,0.0199,0.0236,0.0235,0.0235,0.0235,0.0234,0.032,0.0293,0.0327,0.0341,0.0402,0.0507,0.0488,0.0548,0.0524,0.0552,0.0404,0.0398,0.041,0.0402,0.0399,0.0486,0.0486,0.0486,0.0486,0.0364,0.0356,0.0399,0.0449,0.0531,0.0605,0.077,0.0802,0.0713,0.063,0.0623,0.0616,0.0604,0.0625,0.0612,0.0612,0.0754,0.0754,0.0754,0.0422,0.0419,0.0467,0.0498,0.0598,0.0744,0.0948,0.0929,0.0701,0.0761,0.063,0.0512,0.0483,0.0471,0.0485,0.0471,0.0464,0,0]}],[{"header":{"parameterUnit":"m.s-1","parameterCategory":2,"la1":30.2992,"la2":30.254,"lo1":-89.0895,"lo2":-89.0443,"dy":0.0025,"dx":0.0025,"nx":19,"ny":19,"refTime":"2026-05-10T09:00:00:Z","depth":"4","parameterNumber":2,"parameterNumberName":"U-component_of_CURRENTS"},"data":[0,0,0,0.0404,0.0405,0.04,0.04,0.0201,0.0199,0,0,0,0,0,0,0,0,0,0,0,0.0411,0.0412,0.0404,0.0405,0.04,0.04,0.0201,0.0199,0,0,0,0,0,0,0,0,0,0,0,0.041,0.0412,0.0414,0.0406,0.04,0.0399,0.0202,0.0241,0,0,0,0,0,0,0,0,0,0,0.0264,0.0311,0.0412,0.0414,0.0406,0.0401,0.0399,0.0244,0.0238,0.0165,0,0.0214,0,0.0219,0.0186,0.0186,0,0,0,0.0353,0.0317,0.0332,0.0414,0.0407,0.0401,0.0388,0.0242,0.0235,0.0156,0.0212,0.0205,0.0216,0.0185,0.0184,0.0055,0.0055,0,0,0.0353,0.0374,0.0338,0.033,0.0466,0.0388,0.0388,0.0239,0.0244,0.0211,0.0201,0.0213,0.0184,0.0182,0.0055,0.0055,0,0,0,0.0389,0.0375,0.0395,0.0336,0.0361,0.039,0.0389,0.025,0.0264,0.02,0.021,0.0183,0.018,0.0055,0.0055,0.0137,0,0,0,0.0387,0.04,0.0397,0.0403,0.0367,0.0331,0.0403,0.0274,0.0258,0.0211,0.0183,0.0179,0.0055,0.0055,0.0135,0.0173,0,0,0,0.04,0.0399,0.0423,0.0406,0.0429,0.0335,0.0338,0.0271,0.0265,0.0186,0.0178,0.0055,0.0055,0.0133,0.0169,0.024,0,0,0,0.0384,0.0427,0.0425,0.0457,0.043,0.0394,0.0339,0.0277,0.0213,0.0182,0.0055,0.0055,0.0132,0.0167,0.0237,0.0163,0,0,0,0.0417,0.0431,0.0443,0.0441,0.0438,0.0388,0.0343,0.024,0.0187,0.0081,0.0079,0.0136,0.0169,0.0239,0.0166,0,0,0,0,0.0436,0.0455,0.0451,0.0457,0.0426,0.0383,0.0294,0.0258,0.0185,0.0164,0.0114,0.0132,0.0174,0.012,0.0056,0.0056,0.0056,0.0056,0.0056,0.0475,0.046,0.047,0.0451,0.0423,0.0355,0.0319,0.0251,0.019,0.0183,0.0183,0.0268,0.021,0.0161,0.0161,0.0162,0.0162,0.0162,0.0162,0.0503,0.0498,0.0481,0.0481,0.0436,0.0384,0.0321,0.0296,0.0288,0.0226,0.0264,0.0188,0.017,0.0168,0.0167,0.0167,0.0166,0.0165,0.0165,0.0509,0.0502,0.0513,0.0502,0.0469,0.041,0.0422,0.0388,0.0361,0.0395,0.0355,0.0331,0.0345,0.0432,0.0433,0.0433,0.0433,0.0434,0.0434,0.0495,0.0509,0.0523,0.0516,0.0502,0.0495,0.0491,0.0497,0.0483,0.044,0.0437,0.0359,0.0351,0.0359,0.0442,0.044,0.0439,0.0439,0.0438,0.0472,0.0496,0.0521,0.0527,0.0525,0.0504,0.0556,0.0546,0.0581,0.0553,0.0461,0.0457,0.0428,0.0418,0.0428,0.0534,0.0533,0.0533,0,0.0448,0.0465,0.0513,0.0533,0.0521,0.0505,0.0528,0.0543,0.0505,0.0479,0.0547,0.0441,0.0437,0.0398,0.0389,0.0397,0,0,0,0.042,0.0446,0.0478,0.0525,0.0489,0.0474,0.0517,0.0493,0.0541,0.0518,0.0518,0.0522,0.0466,0.0464,0.0411,0.0401,0.0412,0,0]},{"header":{"parameterUnit":"m.s-1","parameterCategory":2,"la1":30.2992,"la2":30.254,"lo1":-89.0895,"lo2":-89.0443,"dy":0.0025,"dx":0.0025,"nx":19,"ny":19,"refTime":"2026-05-10T09:00:00:Z","depth":"4","parameterNumber":3,"parameterNumberName":"V-component_of_CURRENTS"},"data":[0,0,0,0.0229,0.0229,0.0197,0.0197,0.0111,0.011,0,0,0,0,0,0,0,0,0,0,0,0.0258,0.0258,0.0229,0.0229,0.0197,0.0197,0.0111,0.011,0,0,0,0,0,0,0,0,0,0,0,0.0258,0.0258,0.0258,0.0228,0.0197,0.0197,0.0111,0.0145,0,0,0,0,0,0,0,0,0,0,0.0181,0.0222,0.0258,0.0258,0.0228,0.0197,0.0197,0.0147,0.0143,0.0113,0,0.0128,0,0.011,0.0103,0.0103,0,0,0,0.0223,0.0226,0.0209,0.0258,0.0228,0.0197,0.021,0.0145,0.014,0.0108,0.0126,0.0123,0.0109,0.0103,0.0102,0.0011,0.001,0,0,0.0225,0.0253,0.0213,0.0207,0.0243,0.0211,0.0209,0.0142,0.0151,0.0126,0.0121,0.0107,0.0102,0.0101,0.0011,0.001,0,0,0,0.0234,0.0254,0.024,0.0211,0.0205,0.021,0.0208,0.0155,0.0148,0.012,0.0106,0.0102,0.01,0.0011,0.0011,0.0044,0,0,0,0.0234,0.0259,0.0241,0.0257,0.0207,0.0186,0.0222,0.0154,0.0145,0.0107,0.0102,0.01,0.0011,0.0011,0.0044,0.0055,0,0,0,0.0255,0.0261,0.0263,0.0259,0.0244,0.0187,0.0177,0.0152,0.0136,0.0103,0.0099,0.0012,0.0011,0.0044,0.0054,0.0058,0,0,0,0.0274,0.026,0.0265,0.023,0.0245,0.0164,0.0178,0.0139,0.0111,0.0101,0.0011,0.0011,0.0043,0.0054,0.0058,0.0053,0,0,0,0.0253,0.0259,0.0228,0.0229,0.0149,0.0167,0.0096,0.0089,0.0089,0.003,0.0028,0.0044,0.0054,0.0058,0.001,0,0,0,0,0.0215,0.0205,0.0175,0.014,0.0089,0.0073,0.0055,0.0055,0.0053,0.007,0.002,0.0025,0.0027,0.0021,0.0007,0.0007,0.0007,0.0008,0.0008,0.023,0.018,0.0126,0.0073,0.0036,0.0006,-0.0004,-0.0002,0.0004,0.0023,0.0034,0.0035,0.0028,0.0015,0.0015,0.0015,0.0016,0.0016,0.0016,0.0184,0.0141,0.0108,0.0052,0.0028,-0.0001,-0.0032,-0.0005,0.0003,0.0019,0.002,0.0034,0.0018,0.0018,0.0017,0.0017,0.0017,0.0017,0.0017,0.0181,0.0152,0.0142,0.0085,0.0068,0.004,0.0039,0.0041,0.0041,0.0049,0.0057,0.0049,0.0067,0.0075,0.0075,0.0075,0.0075,0.0075,0.0076,0.0184,0.0159,0.0154,0.0114,0.0113,0.0118,0.0108,0.0095,0.0087,0.0083,0.0081,0.0055,0.0053,0.0068,0.0076,0.0076,0.0076,0.0076,0.0076,0.0129,0.0169,0.0151,0.0154,0.0138,0.0135,0.0138,0.0115,0.0105,0.0077,0.0083,0.0083,0.0069,0.0066,0.0082,0.0095,0.0095,0.0095,0,0.0121,0.0125,0.0143,0.0145,0.014,0.013,0.0129,0.0113,0.0085,0.01,0.0081,0.0089,0.0088,0.0073,0.007,0.0088,0,0,0,0.0082,0.0106,0.0118,0.0141,0.0134,0.0117,0.0129,0.0127,0.0106,0.0068,0.0094,0.0094,0.0048,0.0079,0.0056,0.0054,0.0077,0,0]}]]